User: anonymous   Login
Location: Home
(51.5204°N, 2.5456°W)
Time: 15:28:37
(UTC+00:00)
Language:

Gurwin Techsat 1B - Orbit

View from above orbital plane
View from above orbital plane
View from above satellite
View from above satellite

Ground track
Ground track

The orbit data is extracted from the following two-line orbital elements,

1 25397U 98043D   19339.83941604 -.00000006 +00000-0 +16646-4 0  9994
2 25397 098.7069 278.0435 0000202 247.1784 112.9373 14.23675533111865
Epoch (UTC): 05 December 2019 20:08:45
Eccentricity: 0.0000202
inclination: 98.7069°
perigee height: 813 km
apogee height: 813 km
right ascension of ascending node: 278.0435°
argument of perigee: 247.1784°
revolutions per day: 14.23675533
mean anomaly at epoch: 112.9373°
orbit number at epoch: 11186

The dashed part of the orbit path shows where the satellite is in the earth's shadow,  

DLR